Weather History for Pensacola NAS, FL

Change the Weather History Date:

Monday, January 14, 2013

  Actual Average Record
Temperature  
Mean Temperature 67 °F -  
Max Temperature 73 °F 59 °F - (-1)
Min Temperature 57 °F 40 °F - (-1)
Cooling Degree Days 2    
Growing Degree Days 17 (Base 50)    
Moisture  
Dew Point 67 °F    
Average Humidity 97    
Maximum Humidity 100    
Minimum Humidity 82    
Precipitation  
Precipitation 0.00 in - - ()
Sea Level Pressure  
Sea Level Pressure 30.06 in    
Wind  
Wind Speed 8 mph (SSE)    
Max Wind Speed 14 mph    
Max Gust Speed -    
Visibility 5 miles    
Events Fog , Rain    
Averages and records for this station are not official NWS values.
T = Trace of Precipitation, MM = Missing Value Source: NWS Daily Summary

Daily Weather History Graph

Daily Weather History Graph

Search for Another Location

Airport:

Trip Planner

Search our weather history database for the weather conditions in past years. The results will help you decide how hot, cold, wet, or windy it might be!

Date:

Astronomy

Jan. 14, 2013 Rise Set
Actual Time 6:46 AM CST 5:10 PM CST
Civil Twilight 6:20 AM CST 5:36 PM CST
Nautical Twilight 5:51 AM CST 6:05 PM CST
Astronomical Twilight 5:22 AM CST 6:34 PM CST
Moon 8:36 AM CST (1/14) 8:36 PM CST (1/14)
Length of Visible Light 11h 15m
Length of Day
10h 23m
Waxing Crescent, 11% of the Moon is Illuminated
Jan 14
Waxing Crescent
Jan 18
First Quarter
Jan 26
Full
Feb 3
Last Quarter
Feb 10
New

Hourly Weather History & Observations

Time (CST) Temp. Dew Point Humidity Pressure Visibility Wind Dir Wind Speed Gust Speed Precip Events Conditions
12:56 AM 66.9 °F 66.9 °F 100% 30.02 in 4.0 mi South 8.1 mph - N/A   Overcast
1:56 AM 66.9 °F 66.9 °F 100% 30.03 in 3.0 mi SSE 4.6 mph - N/A   Overcast
2:56 AM 66.9 °F 66.9 °F 100% 30.04 in 3.0 mi South 4.6 mph - N/A   Overcast
3:05 AM 66.2 °F 66.2 °F 100% 30.03 in 2.5 mi SSE 5.8 mph - N/A   Overcast
3:15 AM 66.2 °F 66.2 °F 100% 30.03 in 1.5 mi South 4.6 mph - N/A   Overcast
3:36 AM 66.2 °F 66.2 °F 100% 30.03 in 0.5 mi SSE 6.9 mph - N/A Fog Fog
3:48 AM 66.2 °F 66.2 °F 100% 30.03 in 0.2 mi South 5.8 mph - 0.00 in Fog , Rain Light Rain
3:56 AM 66.9 °F 66.9 °F 100% 30.03 in 0.2 mi South 9.2 mph - 0.00 in Fog , Rain Light Rain
4:33 AM 68.0 °F 68.0 °F 100% 30.02 in 0.5 mi South 11.5 mph - 0.00 in Fog , Rain Light Rain
4:56 AM 68.0 °F 68.0 °F 100% 30.04 in 0.5 mi South 11.5 mph - 0.00 in Fog , Rain Light Rain
5:56 AM 68.0 °F 68.0 °F 100% 30.05 in 0.8 mi South 8.1 mph - 0.00 in Rain Light Rain
6:04 AM 68.0 °F 68.0 °F 100% 30.05 in 0.5 mi South 9.2 mph - N/A Fog Fog
6:56 AM 66.9 °F 66.9 °F 100% 30.07 in 0.2 mi South 4.6 mph - N/A Fog Fog
7:26 AM 66.2 °F 66.2 °F 100% 30.07 in 0.2 mi South 5.8 mph - N/A Fog Fog
7:39 AM 66.2 °F 66.2 °F 100% 30.08 in 0.5 mi South 5.8 mph - N/A Fog Fog
7:56 AM 68.0 °F 68.0 °F 100% 30.09 in 0.5 mi South 5.8 mph - N/A Fog Fog
8:01 AM 68.0 °F 68.0 °F 100% 30.08 in 0.8 mi South 5.8 mph - N/A   Mostly Cloudy
8:11 AM 69.8 °F 69.8 °F 100% 30.09 in 1.0 mi South 6.9 mph - N/A   Mostly Cloudy
8:26 AM 69.8 °F 69.8 °F 100% 30.10 in 1.5 mi South 6.9 mph - N/A   Mostly Cloudy
8:36 AM 69.8 °F 69.8 °F 100% 30.09 in 3.0 mi South 6.9 mph - N/A   Mostly Cloudy
8:56 AM 70.0 °F 70.0 °F 100% 30.11 in 5.0 mi South 6.9 mph - N/A   Mostly Cloudy
9:56 AM 71.1 °F 69.1 °F 93% 30.11 in 10.0 mi SSE 12.7 mph - N/A   Mostly Cloudy
10:56 AM 73.9 °F 68.0 °F 82% 30.09 in 10.0 mi South 13.8 mph - N/A   Mostly Cloudy
11:56 AM 73.9 °F 68.0 °F 82% 30.06 in 10.0 mi SSE 11.5 mph - N/A   Mostly Cloudy
12:28 PM 73.4 °F 68.0 °F 83% 30.05 in 10.0 mi South 9.2 mph - N/A   Mostly Cloudy
12:56 PM 73.0 °F 68.0 °F 84% 30.06 in 10.0 mi SSE 10.4 mph - N/A   Overcast
1:56 PM 72.0 °F 68.0 °F 87% 30.05 in 10.0 mi SSE 9.2 mph - N/A   Mostly Cloudy
2:56 PM 72.0 °F 68.0 °F 87% 30.06 in 10.0 mi SSE 11.5 mph - N/A   Mostly Cloudy
3:56 PM 71.1 °F 69.1 °F 93% 30.08 in 10.0 mi SSE 6.9 mph - N/A   Mostly Cloudy
4:56 PM 69.1 °F 69.1 °F 100% 30.08 in 7.0 mi SSE 8.1 mph - N/A   Mostly Cloudy
5:56 PM 69.1 °F 68.0 °F 96% 30.09 in 8.0 mi SSE 8.1 mph - N/A   Mostly Cloudy
6:40 PM 68.0 °F 68.0 °F 100% 30.07 in 7.0 mi SSE 8.1 mph - N/A   Mostly Cloudy
6:56 PM 68.0 °F 68.0 °F 100% 30.08 in 8.0 mi SSE 8.1 mph - N/A   Mostly Cloudy
7:56 PM 68.0 °F 68.0 °F 100% 30.07 in 8.0 mi SSE 10.4 mph - N/A   Mostly Cloudy
8:56 PM 68.0 °F 68.0 °F 100% 30.07 in 7.0 mi SSE 9.2 mph - N/A   Overcast
9:21 PM 68.0 °F 68.0 °F 100% 30.06 in 8.0 mi SSE 8.1 mph - N/A   Overcast
9:56 PM 68.0 °F 68.0 °F 100% 30.06 in 8.0 mi SSE 9.2 mph - N/A   Overcast
10:16 PM 68.0 °F 68.0 °F 100% 30.05 in 7.0 mi SSE 9.2 mph - N/A   Overcast
10:37 PM 68.0 °F 68.0 °F 100% 30.05 in 7.0 mi Variable 3.5 mph - N/A   Overcast
10:56 PM 61.0 °F 60.1 °F 97% 30.06 in 10.0 mi NNW 9.2 mph - N/A   Overcast
11:56 PM 57.0 °F 57.0 °F 100% 30.07 in 7.0 mi NNW 6.9 mph - N/A   Overcast